Flag for Bahrain Weather past 2 weeks in Riffa, Bahrain

Now
95 °F

Clear.


Feels Like: 113 °F
Forecast: 94 / 102 °F
Wind: 13 mph from Southeast

Location: Bahrain International Airport

Current Time: Aug 29, 2014 at 7:35:21 PM

Latest Report: Aug 29, 2014 at 6:00 PM


Visibility: 4 mi

Pressure: 29.53 "Hg

Humidity: 60%

Dew point: 79 °F

Location of RiffaLocation

Historic Weather in Riffa — Graph

°F

Riffa temperature yesterday

Maximum temperature yesterday: 102 °F (at 12:00 PM)
Minimum temperature yesterday: 91 °F (at 12:00 AM)
Average temperature yesterday: 94 °F

Past Weeks' High & Low Weather Summary

 TemperatureHumidityPressure
High109 °F (Aug 21, 2:00 PM)80% (Aug 20, 3:00 AM)29.71 "Hg (Aug 20, 3:00 AM)
Low90 °F (Aug 14, 9:00 PM)9% (Aug 23, 12:00 PM)29.39 "Hg (Aug 16, 5:00 PM)
Average96 °F58%29.56 "Hg
* Reported Aug 14 6:00 PM — Aug 29 6:00 PM, Riffa, Weather by CustomWeather, © 2014

Note: Actual official high and low records may vary slightly from our data, if they occured in-between our weather recording intervals... More about our weather records

Advertising

Riffa weather history for previous 24 hours

 ConditionsComfort  
Time TempWeatherWind HumidityBarometerVisibility
6:00 PM
Aug 29
95 °FClear.13 mph60%29.53 "Hg4 mi
5:00 PM95 °FClear.15 mph60%29.53 "Hg4 mi
4:00 PM95 °FClear.17 mph60%29.53 "Hg4 mi
3:00 PM97 °FClear.17 mph60%29.53 "Hg4 mi
2:00 PM97 °FClear.16 mph60%29.56 "Hg4 mi
1:00 PM97 °FSunny.12 mph53%29.56 "Hg4 mi
12:00 PM97 °FClear.12 mph60%29.59 "Hg4 mi
11:00 AM97 °FClear.10 mph60%29.59 "Hg4 mi
10:00 AM95 °FSunny.9 mph63%29.59 "Hg4 mi
9:00 AM99 °FSunny.2 mph53%29.59 "Hg4 mi
8:00 AM95 °FSunny.6 mph63%29.59 "Hg3 mi
7:00 AM91 °FPassing clouds.7 mph71%29.59 "Hg4 mi
6:00 AM91 °FHaze.8 mph71%29.56 "Hg3 mi
5:00 AM91 °FPassing clouds.7 mph71%29.56 "Hg4 mi
4:00 AM91 °FClear.13 mph71%29.56 "Hg4 mi
3:00 AM91 °FClear.14 mph71%29.53 "Hg4 mi
2:00 AM91 °FClear.12 mph71%29.53 "Hg4 mi
1:00 AM91 °FClear.8 mph67%29.53 "Hg4 mi
12:00 AM91 °FClear.9 mph67%29.53 "Hg4 mi
11:00 PM
Aug 28
93 °FClear.13 mph63%29.53 "Hg4 mi
10:00 PM93 °FClear.12 mph63%29.53 "Hg4 mi
9:00 PM93 °FClear.12 mph67%29.56 "Hg3 mi
8:00 PM93 °FClear.13 mph63%29.53 "Hg3 mi
7:00 PM93 °FClear.13 mph63%29.53 "Hg3 mi
Weather by CustomWeather, © 2014

See weather overviewHow to use our weather pages